Home > Weather > Barranquilla > Past weeks

Flag for Colombia Past Weather in Barranquilla, Colombia — Yesterday and Last 2 Weeks

Now
88 °F

Scattered clouds.


Feels Like: 105 °F
Forecast: 81 / 92 °F
Wind: 8 mph from North

Location: Barranquilla / Ernestocortissoz

Current Time: May 28, 2016 at 3:20:24 PM

Latest Report: May 28, 2016 at 3:00 PM


Visibility: N/A

Pressure: 29.83 "Hg

Humidity: 79%

Dew Point: 81 °F

Location of BarranquillaLocation

Past Weather in Barranquilla — Graph

°F

Barranquilla Temperature Yesterday

Maximum temperature yesterday: 93 °F (at 12:00 PM)
Minimum temperature yesterday: 77 °F (at 6:00 AM)
Average temperature yesterday: 83 °F

High & Low Weather Summary for the Past Weeks

 TemperatureHumidityPressure
High99 °F (May 20, 1:00 PM)100% (May 15, 4:00 AM)30.00 "Hg (May 15, 4:00 AM)
Low73 °F (May 25, 6:00 PM)57% (May 20, 1:00 PM)29.74 "Hg (May 19, 5:00 PM)
Average85 °F85%29.82 "Hg
* Reported May 13 2:00 PM — May 28 2:00 PM, Barranquilla, Weather by CustomWeather, © 2016

Note: Actual official high and low records may vary slightly from our data, if they occured in-between our weather recording intervals... More about our weather records

Advertising

Barranquilla Weather History for the Previous 24 Hours

Scroll right to see more
 ConditionsComfort  
Time TempWeatherWind HumidityBarometerVisibility
2:00 PM
Sat, May 28
88 °FScattered clouds.8 mph79%29.85 "HgN/A
1:00 PM91 °FScattered clouds.No wind71%29.87 "HgN/A
12:00 PM90 °FScattered clouds.13 mph75%29.89 "HgN/A
11:00 AM91 °FScattered clouds.9 mph75%29.91 "HgN/A
10:00 AM90 °FScattered clouds.8 mph79%29.90 "HgN/A
9:00 AM90 °FScattered clouds.6 mph79%29.90 "HgN/A
8:00 AM84 °FScattered clouds.5 mph89%29.89 "HgN/A
7:00 AM81 °FBroken clouds.5 mph100%29.89 "Hg5 mi
6:00 AM79 °FFog.5 mph94%29.86 "Hg2 mi
5:00 AM79 °FPassing clouds.5 mph94%29.84 "HgN/A
4:00 AM79 °FPassing clouds.5 mph94%29.83 "HgN/A
3:00 AM79 °FPassing clouds.No wind94%29.84 "HgN/A
2:00 AM81 °FPassing clouds.5 mph89%29.84 "HgN/A
1:00 AM81 °FPassing clouds.No wind94%29.85 "HgN/A
12:00 AM81 °FPassing clouds.No wind94%29.86 "HgN/A
11:00 PM
Fri, May 27
81 °FPassing clouds.5 mph94%29.86 "HgN/A
10:00 PM81 °FPassing clouds.No wind94%29.85 "HgN/A
9:00 PM82 °FPartly cloudy.7 mph89%29.85 "HgN/A
8:00 PM82 °FPartly cloudy.7 mph89%29.84 "HgN/A
7:00 PM81 °FPartly cloudy.6 mph89%29.83 "HgN/A
6:00 PM82 °FBroken clouds.12 mph89%29.78 "HgN/A
5:00 PM84 °FBroken clouds.10 mph84%29.77 "HgN/A
4:00 PM82 °FScattered clouds.7 mph79%29.76 "HgN/A
3:00 PM82 °FRain. Scattered clouds.12 mph89%29.77 "Hg2 mi
Weather by CustomWeather, © 2016

See weather overviewHow to use our weather pages